Miscellaneous Local Product
Issued by NWS North Platte, NE

Home | Current Version | Previous Version | Text Only | Print | Product List | Glossary On
Versions: 1 2 3 4 5 6 7 8 9 10 11 12 13 14 15 16 17 18 19 20 21 22 23 24 25 26 27 28 29 30 31 32 33 34 35 36 37 38 39 40 41 42 43 44 45 46 47 48 49 50
132
AXUS43 KLBF 071010
MISLBF


WESTERN AND NORTH CENTRAL NEBRASKA HOURLY WEATHER ROUNDUP
NATIONAL WEATHER SERVICE NORTH PLATTE NE
400 AM CST SUN FEB 07 2016

NOTE: "FAIR" INDICATES FEW OR NO CLOUDS BELOW 12,000 FEET WITH NO
SIGNIFICANT WEATHER AND/OR OBSTRUCTIONS TO VISIBILITY.

NOTE: STATIONS NOT REPORTING VARIABLES SUCH AS SKY/WEATHER OR
PRESSURE ARE PROVIDED BY THE NEBRASKA DEPARTMENT OF
ROADS...RAWS...AND APRS NETWORKS...AND ARE NOT UNDER
NATIONAL WEATHER SERVICE QUALITY CONTROL.

...OBSERVATIONS IN AND NEAR THE EASTERN PANHANDLE OF NEBRASKA...

CITY           SKY/WX    TMP DP  RH WIND       PRES   REMARKS
PINE RIDGE     CLOUDY    35  21  56 W7        30.09R WCI  29
CHADRON        CLOUDY    35  22  58 W12       30.14R WCI  27
ALLIANCE       CLOUDY    24  17  74 W13       30.11R WCI  12
SIDNEY         PTCLDY    25  16  68 NW10      30.14R WCI  15
BIG SPRINGS      N/A     33  23  67 NW9         N/A  WCI  25
$$

...OBSERVATIONS IN NORTH CENTRAL NEBRASKA...

CITY           SKY/WX    TMP DP  RH WIND       PRES   REMARKS
VALENTINE      CLOUDY    36  24  62 W13       30.03R WCI  27
THEDFORD       CLOUDY    35  28  76 W12       30.07S WCI  27
AINSWORTH      CLEAR     36  24  62 W13       30.03R WCI  27
O`NEILL        CLEAR     38  25  60 W20G25    29.98R WCI  27
ORD            CLEAR     34  24  67 NW10      30.01R WCI  26
BROKEN BOW     CLOUDY    40  22  48 NW20      30.03S WCI  30
BUTTE            N/A     36  26  66 NW17G26     N/A  WCI  26
CHAMBERS         N/A     36  21  54 NW6G14      N/A  WCI  31
EWING            N/A     36  26  67 W12         N/A  WCI  28
$$

...OBSERVATIONS IN SOUTHWEST NEBRASKA AND FAR NORTHEAST COLORADO...

CITY           SKY/WX    TMP DP  RH WIND       PRES   REMARKS
WRAY           FAIR      33  21  63 N16       30.12S WCI  22
HOLYOKE        FAIR      34  21  60 N17       30.12F WCI  23
IMPERIAL       CLEAR     29  20  69 NW8       30.11S WCI  21
OGALLALA       CLOUDY    31  19  61 NW16      30.11R WCI  20
NORTH PLATTE   PTCLDY    26  21  81 W7        30.08S WCI  18
MCCOOK         PTCLDY    34  26  72 W16       30.08F WCI  24
LEXINGTON      PTCLDY    35  26  70 W13       30.05F WCI  26
PAXTON           N/A     32  26  78 W7          N/A  WCI  26
STAPLETON        N/A     31  27  83 CALM        N/A
GOTHENBURG       N/A     33  25  72 W5          N/A  WCI  28
CALLAWAY         N/A     34  27  74 N12         N/A  WCI  25
$$

...OBSERVATIONS IN CENTRAL LINCOLN COUNTY AREA...

CITY           SKY/WX    TMP DP  RH WIND       PRES   REMARKS
N.P. AIRPORT   PTCLDY    26  21  81 W7        30.08S WCI  18
N.P. DOWNTOWN    N/A     30  24  79 CALM        N/A
N.P. SOUTHEAST   N/A     30  24  78 CALM        N/A
N.P. HILLCREST   N/A     33  26  75 N17         N/A  WCI  22
$$

...SOME OBSERVATIONS FROM AROUND THE REGION...

CITY           SKY/WX    TMP DP  RH WIND       PRES   REMARKS
DENVER         CLOUDY    41  10  28 W25G33    30.12R
LARAMIE        CLEAR     25  16  68 W28G35    30.15R WCI   9
CHEYENNE       CLEAR     33  16  49 W21G36    30.12R WCI  21
SCOTTSBLUFF    CLOUDY    29  20  69 W8        30.16R WCI  21
RAPID CITY     CLEAR     37  17  44 NW28G41   30.05R WCI  25
BISMARCK       CLEAR     38  24  57 W17G28    29.79S WCI  28
PIERRE         CLOUDY    36  25  64 W20       29.93F WCI  25
WINNER         FAIR      36  24  62 W18       29.98S WCI  26
SIOUX FALLS    CLEAR     35  27  72 W18       29.83S WCI  24
OMAHA          CLOUDY    32  26  78 CALM      29.93S
GRAND ISLAND   CLOUDY    34  25  69 W14       30.01S WCI  25
KANSAS CITY    PTCLDY    38  27  64 SW13      29.99S WCI  30
WICHITA        CLOUDY    34  25  69 W6        30.09R WCI  29
OKLAHOMA CITY  CLEAR     31  26  82 S10       30.15F WCI  22
LIBERAL        CLOUDY    28  12  50 N7        30.11F WCI  21
HAYS           CLOUDY    37  21  52 NW12      30.08R WCI  30
GOODLAND       CLOUDY    29  22  75 W10       30.11F WCI  20
$$




USA.gov is the U.S. government's official web portal to all federal, state and local government web resources and services.